GFSFLT1_prec_precacc_048.txt.gz
Total_Precipitation_Accumulation
0.00 0.00 0.02 0.03 0.02 0.22 0.53 0.69 0.93 1.03 0.92 0.70 0.31 0.19 0.10 0.03 0.00 0.00 0.00 0.00 0.00 0.00 0.00 0.00 0.00 0.00 0.00 0.00 0.00 0.00 0.00 0.00
0.00 0.01 0.02 0.04 0.09 0.38 0.64 0.70 0.95 0.93 0.42 0.16 0.05 0.02 0.00 0.00 0.00 0.00 0.00 0.00 0.00 0.00 0.00 0.00 0.00 0.00 0.00 0.00 0.00 0.00 0.00 0.00
0.01 0.03 0.05 0.12 0.23 0.49 0.57 0.44 0.26 0.06 0.02 0.00 0.00 0.00 0.00 0.00 0.00 0.00 0.00 0.00 0.00 0.00 0.00 0.00 0.00 0.00 0.00 0.00 0.00 0.00 0.00 0.00
0.02 0.06 0.13 0.17 0.14 0.13 0.05 0.03 0.04 0.02 0.00 0.00 0.00 0.00 0.00 0.00 0.00 0.00 0.00 0.00 0.00 0.00 0.00 0.00 0.00 0.00 0.00 0.00 0.00 0.00 0.00 0.00
0.03 0.02 0.01 0.00 0.01 0.08 0.05 0.01 0.02 0.03 0.00 0.00 0.00 0.00 0.00 0.00 0.00 0.00 0.00 0.00 0.00 0.00 0.00 0.00 0.00 0.00 0.00 0.00 0.00 0.00 0.00 0.00
0.00 0.00 0.00 0.01 0.02 0.07 0.06 0.02 0.03 0.02 0.00 0.00 0.00 0.00 0.00 0.00 0.00 0.00 0.00 0.00 0.00 0.00 0.00 0.00 0.00 0.00 0.00 0.00 0.00 0.00 0.00 0.00
0.00 0.01 0.01 0.00 0.02 0.04 0.03 0.01 0.01 0.02 0.01 0.00 0.00 0.00 0.00 0.00 0.00 0.00 0.00 0.00 0.00 0.00 0.00 0.00 0.00 0.00 0.00 0.00 0.00 0.01 0.02 0.03
0.00 0.00 0.00 0.00 0.00 0.01 0.03 0.03 0.00 0.00 0.00 0.00 0.00 0.00 0.00 0.00 0.00 0.00 0.00 0.00 0.00 0.00 0.00 0.00 0.00 0.00 0.00 0.00 0.01 0.03 0.06 0.08
0.00 0.00 0.00 0.01 0.01 0.01 0.05 0.01 0.00 0.00 0.00 0.00 0.00 0.00 0.00 0.00 0.00 0.00 0.00 0.00 0.00 0.00 0.00 0.00 0.00 0.00 0.01 0.02 0.06 0.12 0.20 0.28
0.00 0.00 0.00 0.04 0.02 0.03 0.02 0.00 0.00 0.00 0.00 0.00 0.00 0.00 0.00 0.00 0.00 0.00 0.00 0.00 0.00 0.00 0.00 0.00 0.01 0.02 0.08 0.16 0.23 0.30 0.35 0.37
0.00 0.00 0.00 0.01 0.03 0.03 0.00 0.00 0.00 0.01 0.00 0.00 0.00 0.00 0.00 0.00 0.00 0.00 0.00 0.00 0.00 0.00 0.01 0.05 0.10 0.11 0.09 0.09 0.09 0.08 0.10 0.12
0.00 0.00 0.00 0.00 0.00 0.00 0.00 0.00 0.00 0.00 0.00 0.00 0.00 0.00 0.00 0.00 0.00 0.00 0.00 0.00 0.01 0.01 0.02 0.04 0.04 0.06 0.09 0.09 0.07 0.06 0.05 0.02
0.00 0.00 0.00 0.00 0.00 0.00 0.00 0.00 0.00 0.00 0.00 0.00 0.00 0.01 0.01 0.01 0.01 0.01 0.00 0.00 0.01 0.04 0.05 0.06 0.08 0.09 0.07 0.06 0.03 0.02 0.02 0.02
0.00 0.00 0.00 0.00 0.00 0.00 0.00 0.00 0.00 0.00 0.00 0.00 0.01 0.02 0.01 0.01 0.01 0.01 0.01 0.02 0.04 0.07 0.06 0.06 0.06 0.03 0.02 0.02 0.01 0.01 0.01 0.00
0.00 0.00 0.00 0.00 0.00 0.01 0.01 0.00 0.01 0.01 0.03 0.03 0.02 0.01 0.01 0.01 0.00 0.00 0.01 0.05 0.07 0.04 0.02 0.03 0.02 0.01 0.00 0.00 0.00 0.00 0.00 0.00
0.00 0.01 0.02 0.02 0.02 0.02 0.03 0.03 0.04 0.05 0.03 0.01 0.01 0.00 0.00 0.00 0.00 0.01 0.03 0.05 0.02 0.02 0.02 0.01 0.00 0.00 0.00 0.00 0.00 0.00 0.00 0.00
0.00 0.01 0.03 0.02 0.03 0.02 0.03 0.03 0.03 0.02 0.00 0.00 0.01 0.04 0.07 0.10 0.13 0.10 0.10 0.07 0.03 0.01 0.03 0.01 0.00 0.00 0.00 0.00 0.00 0.00 0.00 0.00
0.00 0.00 0.00 0.01 0.02 0.04 0.05 0.03 0.01 0.00 0.00 0.01 0.02 0.05 0.08 0.07 0.05 0.07 0.05 0.04 0.06 0.06 0.01 0.00 0.00 0.00 0.00 0.00 0.00 0.00 0.00 0.00
0.00 0.00 0.00 0.00 0.00 0.00 0.00 0.00 0.00 0.00 0.00 0.00 0.00 0.01 0.02 0.02 0.04 0.07 0.09 0.12 0.06 0.00 0.00 0.00 0.00 0.00 0.00 0.00 0.00 0.00 0.00 0.00

GFSFLT1_prec_precacc_054.txt.gz
Total_Precipitation_Accumulation
0.00 0.00 0.02 0.03 0.02 0.22 0.53 0.69 0.93 1.03 0.92 0.70 0.31 0.20 0.13 0.07 0.04 0.02 0.00 0.00 0.00 0.00 0.00 0.00 0.00 0.00 0.00 0.00 0.00 0.00 0.00 0.00
0.00 0.01 0.02 0.04 0.09 0.38 0.64 0.70 0.95 0.93 0.42 0.16 0.05 0.03 0.03 0.03 0.04 0.02 0.00 0.00 0.00 0.00 0.00 0.00 0.00 0.00 0.00 0.00 0.00 0.00 0.00 0.00
0.01 0.03 0.05 0.12 0.23 0.50 0.59 0.44 0.26 0.06 0.02 0.00 0.00 0.00 0.04 0.03 0.03 0.00 0.00 0.00 0.00 0.00 0.00 0.00 0.00 0.00 0.00 0.00 0.00 0.00 0.00 0.00
0.02 0.06 0.13 0.17 0.14 0.13 0.07 0.06 0.04 0.02 0.00 0.00 0.00 0.02 0.04 0.02 0.00 0.00 0.00 0.00 0.00 0.00 0.00 0.00 0.00 0.00 0.00 0.00 0.00 0.00 0.00 0.00
0.03 0.02 0.01 0.00 0.01 0.08 0.06 0.05 0.04 0.03 0.00 0.00 0.00 0.01 0.02 0.01 0.00 0.00 0.00 0.00 0.00 0.00 0.00 0.00 0.00 0.00 0.00 0.00 0.00 0.00 0.00 0.00
0.00 0.00 0.00 0.01 0.02 0.07 0.08 0.09 0.09 0.05 0.02 0.04 0.07 0.10 0.09 0.05 0.02 0.00 0.00 0.00 0.00 0.00 0.00 0.00 0.00 0.00 0.00 0.00 0.00 0.00 0.00 0.00
0.00 0.01 0.01 0.00 0.03 0.05 0.04 0.11 0.07 0.13 0.07 0.09 0.10 0.11 0.10 0.05 0.01 0.00 0.00 0.00 0.00 0.00 0.00 0.00 0.00 0.00 0.00 0.00 0.00 0.01 0.02 0.03
0.00 0.00 0.00 0.00 0.01 0.02 0.06 0.13 0.15 0.16 0.20 0.13 0.09 0.08 0.04 0.02 0.00 0.00 0.00 0.00 0.00 0.00 0.00 0.01 0.00 0.01 0.01 0.00 0.01 0.03 0.06 0.08
0.00 0.00 0.00 0.01 0.03 0.02 0.09 0.09 0.17 0.17 0.20 0.14 0.08 0.06 0.01 0.00 0.00 0.00 0.00 0.00 0.00 0.01 0.02 0.02 0.02 0.01 0.01 0.02 0.06 0.12 0.20 0.28
0.00 0.00 0.00 0.04 0.02 0.04 0.10 0.13 0.16 0.16 0.15 0.07 0.05 0.03 0.01 0.00 0.00 0.00 0.00 0.00 0.01 0.03 0.03 0.04 0.10 0.08 0.10 0.16 0.23 0.30 0.35 0.37
0.00 0.00 0.00 0.01 0.03 0.07 0.07 0.05 0.09 0.09 0.06 0.05 0.03 0.01 0.01 0.00 0.00 0.01 0.01 0.02 0.06 0.08 0.11 0.17 0.16 0.12 0.10 0.09 0.09 0.08 0.10 0.12
0.00 0.00 0.00 0.00 0.01 0.03 0.02 0.02 0.02 0.03 0.04 0.04 0.03 0.02 0.02 0.02 0.01 0.01 0.01 0.04 0.09 0.14 0.12 0.06 0.04 0.06 0.10 0.09 0.07 0.06 0.05 0.02
0.00 0.00 0.00 0.00 0.00 0.00 0.00 0.02 0.04 0.09 0.09 0.08 0.06 0.07 0.09 0.08 0.05 0.06 0.10 0.12 0.09 0.07 0.07 0.07 0.08 0.09 0.07 0.06 0.03 0.02 0.02 0.02
0.00 0.00 0.00 0.00 0.00 0.01 0.04 0.06 0.10 0.14 0.11 0.10 0.11 0.10 0.09 0.09 0.09 0.08 0.05 0.04 0.05 0.08 0.06 0.06 0.06 0.03 0.02 0.02 0.01 0.01 0.01 0.00
0.00 0.00 0.00 0.00 0.01 0.07 0.10 0.10 0.12 0.15 0.17 0.17 0.16 0.11 0.08 0.04 0.02 0.02 0.02 0.05 0.09 0.05 0.03 0.03 0.02 0.01 0.00 0.00 0.00 0.00 0.00 0.00
0.00 0.01 0.03 0.03 0.05 0.11 0.12 0.16 0.15 0.16 0.14 0.12 0.10 0.06 0.02 0.01 0.01 0.02 0.05 0.09 0.05 0.02 0.02 0.02 0.00 0.00 0.00 0.00 0.00 0.00 0.00 0.00
0.00 0.01 0.04 0.05 0.06 0.08 0.10 0.09 0.09 0.09 0.08 0.06 0.04 0.05 0.08 0.11 0.13 0.12 0.12 0.07 0.03 0.03 0.04 0.01 0.00 0.00 0.00 0.00 0.00 0.00 0.00 0.00
0.00 0.00 0.00 0.01 0.02 0.05 0.06 0.06 0.05 0.03 0.02 0.02 0.03 0.06 0.08 0.07 0.05 0.07 0.05 0.07 0.12 0.10 0.02 0.00 0.00 0.00 0.00 0.00 0.00 0.00 0.00 0.00
0.00 0.00 0.00 0.00 0.00 0.00 0.00 0.00 0.01 0.01 0.00 0.00 0.01 0.01 0.02 0.02 0.04 0.10 0.16 0.19 0.09 0.01 0.00 0.00 0.00 0.00 0.00 0.00 0.00 0.00 0.00 0.00

GFSFLT1_prec_precacc_057.txt.gz
Total_Precipitation_Accumulation
0.00 0.00 0.02 0.03 0.02 0.22 0.53 0.69 0.93 1.03 0.92 0.70 0.31 0.20 0.13 0.07 0.05 0.07 0.05 0.02 0.01 0.00 0.00 0.00 0.00 0.00 0.00 0.00 0.00 0.00 0.00 0.00
0.00 0.01 0.02 0.04 0.09 0.38 0.64 0.70 0.95 0.93 0.42 0.16 0.05 0.03 0.03 0.06 0.11 0.10 0.04 0.02 0.00 0.00 0.00 0.00 0.00 0.00 0.00 0.00 0.00 0.00 0.00 0.00
0.01 0.03 0.05 0.12 0.23 0.50 0.59 0.44 0.26 0.06 0.02 0.00 0.00 0.00 0.04 0.04 0.10 0.07 0.03 0.00 0.00 0.00 0.00 0.00 0.00 0.00 0.00 0.00 0.00 0.00 0.00 0.00
0.02 0.06 0.13 0.17 0.14 0.13 0.07 0.06 0.04 0.02 0.00 0.00 0.00 0.02 0.05 0.04 0.05 0.05 0.01 0.00 0.00 0.00 0.00 0.00 0.00 0.00 0.00 0.00 0.00 0.00 0.00 0.00
0.03 0.02 0.01 0.00 0.01 0.08 0.06 0.05 0.04 0.03 0.00 0.00 0.00 0.02 0.04 0.07 0.08 0.04 0.01 0.00 0.00 0.00 0.00 0.00 0.00 0.00 0.00 0.00 0.00 0.00 0.00 0.00
0.00 0.00 0.00 0.01 0.02 0.07 0.08 0.09 0.09 0.05 0.02 0.04 0.07 0.11 0.13 0.11 0.08 0.04 0.02 0.00 0.00 0.00 0.00 0.00 0.00 0.00 0.00 0.00 0.00 0.00 0.00 0.00
0.00 0.01 0.01 0.00 0.03 0.05 0.04 0.11 0.07 0.13 0.08 0.11 0.13 0.13 0.12 0.09 0.07 0.03 0.01 0.00 0.00 0.00 0.00 0.00 0.00 0.00 0.00 0.00 0.01 0.01 0.02 0.03
0.00 0.00 0.00 0.00 0.01 0.02 0.06 0.13 0.15 0.16 0.23 0.16 0.14 0.11 0.07 0.03 0.01 0.01 0.01 0.02 0.01 0.00 0.00 0.01 0.00 0.01 0.01 0.01 0.02 0.04 0.06 0.08
0.00 0.00 0.00 0.01 0.03 0.02 0.09 0.09 0.17 0.17 0.23 0.21 0.14 0.11 0.03 0.01 0.01 0.02 0.02 0.01 0.00 0.01 0.02 0.02 0.02 0.02 0.06 0.09 0.10 0.13 0.20 0.28
0.00 0.00 0.00 0.04 0.02 0.04 0.10 0.13 0.16 0.17 0.17 0.18 0.20 0.13 0.06 0.03 0.03 0.02 0.01 0.00 0.01 0.03 0.03 0.04 0.11 0.15 0.16 0.17 0.24 0.30 0.35 0.37
0.00 0.00 0.00 0.01 0.03 0.07 0.07 0.05 0.09 0.09 0.10 0.13 0.14 0.10 0.07 0.03 0.02 0.01 0.01 0.02 0.07 0.08 0.11 0.18 0.19 0.15 0.10 0.10 0.09 0.08 0.10 0.12
0.00 0.00 0.00 0.00 0.01 0.03 0.02 0.02 0.02 0.04 0.08 0.11 0.10 0.10 0.06 0.05 0.05 0.03 0.02 0.06 0.12 0.15 0.14 0.09 0.06 0.06 0.10 0.09 0.07 0.06 0.05 0.02
0.00 0.00 0.00 0.00 0.00 0.00 0.00 0.02 0.04 0.11 0.15 0.17 0.17 0.18 0.20 0.20 0.15 0.11 0.15 0.17 0.14 0.08 0.09 0.11 0.14 0.13 0.08 0.07 0.03 0.02 0.02 0.02
0.00 0.00 0.00 0.00 0.00 0.01 0.04 0.06 0.11 0.18 0.15 0.17 0.23 0.21 0.19 0.19 0.18 0.16 0.16 0.17 0.08 0.09 0.10 0.12 0.10 0.07 0.04 0.02 0.01 0.01 0.01 0.00
0.00 0.00 0.00 0.00 0.01 0.07 0.11 0.11 0.15 0.19 0.21 0.22 0.25 0.24 0.20 0.15 0.09 0.06 0.05 0.08 0.09 0.07 0.07 0.09 0.06 0.02 0.00 0.00 0.00 0.00 0.00 0.00
0.00 0.01 0.03 0.03 0.05 0.13 0.15 0.17 0.16 0.18 0.17 0.15 0.14 0.10 0.06 0.04 0.03 0.02 0.05 0.10 0.09 0.09 0.06 0.03 0.01 0.01 0.00 0.00 0.00 0.00 0.00 0.00
0.00 0.01 0.04 0.05 0.07 0.10 0.10 0.10 0.09 0.09 0.08 0.07 0.05 0.05 0.09 0.11 0.13 0.12 0.13 0.10 0.05 0.04 0.06 0.04 0.02 0.00 0.00 0.00 0.00 0.00 0.00 0.00
0.00 0.00 0.00 0.01 0.02 0.05 0.06 0.06 0.05 0.03 0.02 0.02 0.03 0.06 0.08 0.07 0.06 0.08 0.06 0.08 0.13 0.14 0.09 0.05 0.02 0.01 0.00 0.00 0.00 0.00 0.00 0.00
0.00 0.00 0.00 0.00 0.00 0.00 0.00 0.00 0.01 0.01 0.00 0.00 0.01 0.01 0.02 0.02 0.05 0.12 0.18 0.24 0.19 0.10 0.03 0.01 0.00 0.00 0.00 0.00 0.00 0.00 0.00 0.00

GFSFLT1_prec_precacc_063.txt.gz
Total_Precipitation_Accumulation
0.00 0.00 0.02 0.03 0.02 0.22 0.53 0.69 0.93 1.04 0.92 0.70 0.31 0.20 0.13 0.07 0.05 0.10 0.15 0.14 0.08 0.04 0.02 0.00 0.00 0.00 0.00 0.00 0.00 0.00 0.00 0.00
0.00 0.01 0.02 0.04 0.09 0.38 0.64 0.70 0.95 0.93 0.42 0.16 0.05 0.03 0.03 0.06 0.11 0.14 0.14 0.10 0.07 0.03 0.01 0.00 0.00 0.00 0.00 0.00 0.00 0.00 0.00 0.00
0.01 0.03 0.05 0.12 0.23 0.50 0.59 0.44 0.26 0.06 0.02 0.00 0.00 0.00 0.04 0.04 0.10 0.10 0.08 0.09 0.07 0.04 0.01 0.00 0.00 0.00 0.00 0.00 0.00 0.00 0.00 0.00
0.02 0.06 0.13 0.17 0.14 0.13 0.07 0.06 0.04 0.02 0.00 0.00 0.00 0.02 0.05 0.04 0.08 0.14 0.10 0.06 0.03 0.01 0.00 0.01 0.00 0.00 0.00 0.00 0.00 0.00 0.00 0.00
0.03 0.02 0.01 0.00 0.01 0.08 0.06 0.05 0.04 0.03 0.00 0.00 0.00 0.02 0.04 0.07 0.10 0.08 0.03 0.02 0.01 0.01 0.01 0.02 0.01 0.00 0.00 0.00 0.00 0.00 0.00 0.00
0.00 0.00 0.00 0.01 0.02 0.07 0.08 0.09 0.09 0.05 0.02 0.04 0.07 0.11 0.13 0.12 0.09 0.05 0.03 0.04 0.04 0.03 0.02 0.02 0.00 0.00 0.00 0.00 0.00 0.00 0.00 0.00
0.00 0.01 0.01 0.00 0.03 0.05 0.04 0.11 0.07 0.13 0.08 0.11 0.13 0.15 0.13 0.10 0.07 0.04 0.03 0.02 0.03 0.03 0.03 0.03 0.02 0.01 0.01 0.00 0.01 0.01 0.02 0.04
0.00 0.00 0.00 0.00 0.01 0.02 0.06 0.13 0.15 0.16 0.23 0.16 0.15 0.16 0.10 0.04 0.02 0.02 0.02 0.03 0.03 0.03 0.03 0.03 0.03 0.04 0.02 0.01 0.03 0.06 0.08 0.09
0.00 0.00 0.00 0.01 0.03 0.02 0.09 0.09 0.17 0.17 0.23 0.21 0.22 0.19 0.06 0.04 0.04 0.09 0.08 0.05 0.03 0.05 0.06 0.05 0.05 0.05 0.08 0.10 0.11 0.15 0.20 0.29
0.00 0.00 0.00 0.04 0.02 0.04 0.10 0.13 0.16 0.17 0.17 0.19 0.28 0.24 0.11 0.07 0.07 0.06 0.06 0.05 0.06 0.07 0.08 0.13 0.23 0.28 0.18 0.20 0.27 0.33 0.39 0.40
0.00 0.00 0.00 0.01 0.03 0.07 0.07 0.06 0.09 0.09 0.10 0.14 0.20 0.22 0.19 0.10 0.07 0.07 0.07 0.07 0.10 0.12 0.16 0.24 0.23 0.18 0.16 0.17 0.15 0.13 0.13 0.14
0.00 0.00 0.00 0.00 0.01 0.03 0.02 0.02 0.02 0.04 0.08 0.11 0.12 0.18 0.16 0.15 0.16 0.13 0.09 0.11 0.17 0.22 0.17 0.17 0.24 0.26 0.23 0.16 0.13 0.14 0.12 0.06
0.00 0.00 0.00 0.00 0.00 0.00 0.00 0.02 0.04 0.11 0.15 0.18 0.20 0.23 0.26 0.27 0.23 0.17 0.19 0.20 0.18 0.22 0.42 0.54 0.38 0.27 0.20 0.18 0.13 0.08 0.06 0.04
0.00 0.00 0.00 0.00 0.00 0.01 0.04 0.06 0.11 0.18 0.15 0.18 0.24 0.24 0.24 0.24 0.23 0.22 0.30 0.50 0.65 0.68 0.55 0.39 0.24 0.17 0.15 0.14 0.11 0.08 0.04 0.01
0.00 0.00 0.00 0.00 0.01 0.07 0.11 0.11 0.16 0.19 0.21 0.23 0.29 0.29 0.23 0.19 0.14 0.15 0.19 0.22 0.20 0.14 0.11 0.13 0.16 0.14 0.09 0.08 0.05 0.02 0.00 0.00
0.00 0.01 0.03 0.03 0.05 0.13 0.15 0.18 0.18 0.21 0.19 0.18 0.18 0.14 0.09 0.06 0.04 0.04 0.06 0.10 0.09 0.09 0.08 0.08 0.06 0.07 0.08 0.06 0.02 0.00 0.00 0.00
0.00 0.01 0.04 0.05 0.07 0.11 0.13 0.15 0.16 0.15 0.12 0.14 0.11 0.10 0.10 0.12 0.13 0.12 0.13 0.10 0.05 0.04 0.08 0.09 0.09 0.06 0.04 0.02 0.00 0.00 0.00 0.00
0.00 0.00 0.00 0.01 0.02 0.05 0.07 0.07 0.08 0.05 0.05 0.03 0.03 0.06 0.09 0.07 0.06 0.08 0.06 0.08 0.14 0.17 0.16 0.11 0.05 0.02 0.01 0.00 0.00 0.00 0.00 0.00
0.00 0.00 0.00 0.00 0.00 0.00 0.01 0.00 0.01 0.01 0.00 0.00 0.01 0.01 0.02 0.02 0.05 0.12 0.18 0.25 0.22 0.13 0.05 0.01 0.01 0.00 0.00 0.00 0.00 0.00 0.00 0.00